EGGP

Liverpool John Lennon  Airport

Liverpool, United Kingdom
Issued Wind Visibility Ceiling Temperature Dew Point Humidity Barometer
Nov-19
02:20 UTC
010°
3 KTS
10,000+ meters Broken
4,500' AGL
C
43° F
C
36° F
76% 30.18" Hg
1022 hPa
VFR
Nov-19
01:50 UTC
350°
5 KTS
10,000+ meters Broken
4,500' AGL
C
43° F
C
36° F
76% 30.18" Hg
1022 hPa
VFR
Nov-19
01:20 UTC
020°
4 KTS
10,000+ meters   C
43° F
C
36° F
76% 30.18" Hg
1022 hPa
VFR
Nov-19
00:50 UTC
360°
5 KTS
10,000+ meters   C
43° F
C
37° F
81% 30.18" Hg
1022 hPa
VFR
Nov-19
00:20 UTC
340°
5 KTS
10,000+ meters Broken
4,100' AGL
C
45° F
C
37° F
76% 30.18" Hg
1022 hPa
VFR
Nov-18
23:50 UTC
360°
3 KTS
10,000+ meters Broken
3,600' AGL
C
45° F
C
39° F
81% 30.18" Hg
1022 hPa
VFR
Nov-18
23:20 UTC
350°
4 KTS
10,000+ meters Broken
3,300' AGL
C
45° F
C
37° F
76% 30.18" Hg
1022 hPa
VFR
Nov-18
22:50 UTC
350°
6 KTS
10,000+ meters Broken
2,700' AGL
C
46° F
C
39° F
76% 30.15" Hg
1021 hPa
MVFR
Nov-18
22:20 UTC
010°
6 KTS
10,000+ meters Broken
3,200' AGL
C
46° F
C
39° F
76% 30.15" Hg
1021 hPa
VFR
Nov-18
21:50 UTC
330°
12 KTS
10,000+ meters Broken
3,700' AGL
C
46° F
C
39° F
76% 30.15" Hg
1021 hPa
VFR
Nov-18
21:20 UTC
320°
8 KTS
10,000+ meters Broken
4,400' AGL
C
46° F
C
39° F
76% 30.15" Hg
1021 hPa
VFR
Nov-18
20:50 UTC
320°
11 KTS
10,000+ meters Broken
3,600' AGL
C
46° F
C
41° F
82% 30.15" Hg
1021 hPa
VFR
Nov-18
20:20 UTC
320°
8 KTS
10,000+ meters   C
46° F
C
41° F
82% 30.15" Hg
1021 hPa
VFR
Nov-18
19:50 UTC
300°
10 KTS
10,000+ meters Broken
3,400' AGL
C
46° F
C
41° F
82% 30.15" Hg
1021 hPa
VFR
Nov-18
19:20 UTC
320°
8 KTS
10,000+ meters Broken
4,600' AGL
C
46° F
C
43° F
87% 30.15" Hg
1021 hPa
VFR
Nov-18
18:50 UTC
320°
11 KTS
10,000+ meters Broken
2,300' AGL
C
48° F
C
43° F
82% 30.15" Hg
1021 hPa
MVFR
Nov-18
18:20 UTC
290°
10 KTS
10,000+ meters Broken
2,800' AGL
C
46° F
C
43° F
87% 30.15" Hg
1021 hPa
MVFR
Nov-18
17:50 UTC
310°
7 KTS
10,000+ meters Broken
2,800' AGL
C
46° F
C
43° F
87% 30.15" Hg
1021 hPa
MVFR
Nov-18
17:20 UTC
330°
11 KTS
10,000+ meters Broken
2,600' AGL
C
48° F
C
43° F
82% 30.12" Hg
1020 hPa
MVFR
Nov-18
16:50 UTC
310°
9 KTS
10,000+ meters Broken
3,800' AGL
C
48° F
C
45° F
87% 30.12" Hg
1020 hPa
VFR
Nov-18
16:20 UTC
320°
9 KTS
10,000+ meters Broken
3,600' AGL
C
48° F
C
43° F
82% 30.12" Hg
1020 hPa
VFR
Nov-18
15:50 UTC
310°
11 KTS
10,000+ meters   C
48° F
C
41° F
76% 30.12" Hg
1020 hPa
VFR
Nov-18
15:20 UTC
300°
11 KTS
10,000+ meters   C
48° F
C
41° F
76% 30.12" Hg
1020 hPa
VFR
Nov-18
14:50 UTC
300°
11 KTS
10,000+ meters   C
48° F
C
41° F
76% 30.12" Hg
1020 hPa
VFR
Nov-18
14:20 UTC
300°
11 KTS
10,000+ meters   10° C
50° F
C
41° F
71% 30.12" Hg
1020 hPa
VFR
Nov-18
13:50 UTC
300°
12 KTS
10,000+ meters   10° C
50° F
C
41° F
71% 30.15" Hg
1021 hPa
VFR
Nov-18
13:20 UTC
300°
12 KTS
Gust 23 KTS
10,000+ meters Broken
3,600' AGL
10° C
50° F
C
41° F
71% 30.12" Hg
1020 hPa
VFR
Nov-18
12:50 UTC
310°
11 KTS
10,000+ meters   10° C
50° F
C
43° F
76% 30.12" Hg
1020 hPa
VFR
Nov-18
12:20 UTC
300°
13 KTS
10,000+ meters   10° C
50° F
C
41° F
71% 30.12" Hg
1020 hPa
VFR
Nov-18
11:50 UTC
300°
12 KTS
10,000+ meters   C
48° F
C
41° F
76% 30.15" Hg
1021 hPa
VFR
Nov-18
11:20 UTC
300°
12 KTS
10,000+ meters   10° C
50° F
C
43° F
76% 30.15" Hg
1021 hPa
VFR
Nov-18
10:50 UTC
280°
13 KTS
10,000+ meters Broken
3,800' AGL
10° C
50° F
C
41° F
71% 30.15" Hg
1021 hPa
VFR
Nov-18
10:20 UTC
290°
14 KTS
10,000+ meters   10° C
50° F
C
43° F
76% 30.15" Hg
1021 hPa
VFR
Nov-18
09:50 UTC
300°
13 KTS
10,000+ meters   C
48° F
C
41° F
76% 30.15" Hg
1021 hPa
VFR
Nov-18
09:20 UTC
280°
13 KTS
10,000+ meters   10° C
50° F
C
43° F
76% 30.15" Hg
1021 hPa
VFR
Nov-18
08:50 UTC
270°
11 KTS
10,000+ meters Broken
3,000' AGL
C
46° F
C
45° F
93% 30.15" Hg
1021 hPa
MVFR
Nov-18
08:20 UTC
270°
13 KTS
10,000+ meters   C
46° F
C
45° F
93% 30.15" Hg
1021 hPa
VFR
Nov-18
07:50 UTC
270°
16 KTS
10,000+ meters   C
46° F
C
45° F
93% 30.15" Hg
1021 hPa
VFR
Nov-18
07:20 UTC
270°
14 KTS
10,000+ meters   C
46° F
C
45° F
93% 30.15" Hg
1021 hPa
VFR
Nov-18
06:50 UTC
260°
13 KTS
10,000+ meters   C
46° F
C
45° F
93% 30.15" Hg
1021 hPa
VFR
Nov-18
06:20 UTC
260°
13 KTS
10,000+ meters   C
46° F
C
45° F
93% 30.15" Hg
1021 hPa
VFR
Nov-18
05:50 UTC
270°
15 KTS
10,000+ meters   C
46° F
C
45° F
93% 30.15" Hg
1021 hPa
VFR
Nov-18
05:20 UTC
250°
9 KTS
10,000+ meters Broken
4,100' AGL
C
46° F
C
43° F
87% 30.15" Hg
1021 hPa
VFR
Nov-18
04:50 UTC
250°
8 KTS
10,000+ meters Broken
4,600' AGL
C
46° F
C
43° F
87% 30.18" Hg
1022 hPa
VFR
Nov-18
04:20 UTC
250°
9 KTS
10,000+ meters Broken
4,800' AGL
C
45° F
C
43° F
93% 30.18" Hg
1022 hPa
VFR
Nov-18
03:50 UTC
250°
12 KTS
10,000+ meters Broken
4,700' AGL
C
45° F
C
43° F
93% 30.18" Hg
1022 hPa
VFR
Nov-18
03:20 UTC
250°
12 KTS
10,000+ meters Broken
4,700' AGL
C
46° F
C
43° F
87% 30.18" Hg
1022 hPa
VFR